GW5208 Weather Reports


Display with metric or nautical units.
time (UTC)temp
F
wind
direction
speed
MPH
gust
MPH
rain 1hr
in
rain 24hr
in
rain mn
in
humidity
%
barometer
mb
20260506073024 29 147 1.0 2.0 0.00 0.00 0.00 52 1019.7
20260506071529 30 144 0.0 2.0 0.00 0.00 0.00 52 1019.8
20260506061527 32 105 0.0 2.0 0.00 0.00 0.00 45 1019.7
20260506044524 35 76 0.0 2.0 0.00 0.00 0.00 42 1020.0
20260506043022 36 76 1.0 2.0 0.00 0.00 0.00 41 1020.1
20260506041528 37 76 0.0 2.0 0.00 0.00 0.00 40 1020.2
20260506040029 37 76 0.0 2.0 0.00 0.00 0.00 40 1020.2
20260506034531 38 76 1.0 3.0 0.00 0.00 0.00 39 1020.1
20260506033015 39 76 2.0 3.0 0.00 0.00 0.00 38 1020.1
20260506031519 40 70 1.0 3.0 0.00 0.00 0.00 37 1020.1
20260506030024 41 67 2.0 4.0 0.00 0.00 0.00 35 1020.0
20260506024528 43 59 2.0 4.0 0.00 0.00 0.00 35 1019.8
20260506023026 44 50 4.0 7.0 0.00 0.00 0.00 33 1019.8
20260506021517 46 27 5.0 9.0 0.00 0.00 0.00 31 1019.7
20260506020022 47 32 3.0 7.0 0.00 0.00 0.00 30 1019.8
20260506014524 47 32 4.0 9.0 0.00 0.00 0.00 29 1019.7
20260506013032 48 3 4.0 8.0 0.00 0.00 0.00 28 1019.7
20260506011539 49 11 3.0 9.0 0.00 0.00 0.00 29 1019.6
20260506010022 49 32 5.0 15.0 0.00 0.00 0.00 29 1019.6
20260506004536 50 342 6.0 11.0 0.00 0.00 0.00 27 1019.6
20260506003029 50 25 5.0 13.0 0.00 0.00 0.00 28 1019.5
20260506001531 50 359 5.0 14.0 0.00 0.00 0.00 28 1019.5
20260506000028 50 52 5.0 11.0 0.00 0.00 0.00 26 1019.5
20260505234524 50 335 6.0 13.0 0.00 0.00 0.00 28 1019.5
20260505233033 50 323 7.0 13.0 0.00 0.00 0.00 28 1019.5
20260505231537 50 41 5.0 13.0 0.00 0.00 0.00 27 1019.4
20260505230028 51 51 6.0 13.0 0.00 0.00 0.00 26 1019.4
20260505224520 51 38 4.0 14.0 0.00 0.00 0.00 26 1019.4
20260505223005 51 328 7.0 15.0 0.00 0.00 0.00 26 1019.5
20260505221510 52 47 5.0 13.0 0.00 0.00 0.00 26 1019.5
20260505220036 51 50 5.0 13.0 0.00 0.00 0.00 26 1019.5
20260505214525 50 295 7.0 12.0 0.00 0.00 0.00 26 1019.5
20260505213023 51 53 5.0 13.0 0.00 0.00 0.00 25 1019.6
20260505211508 51 32 7.0 14.0 0.00 0.00 0.00 27 1019.7
20260505210012 50 321 6.0 17.0 0.00 0.00 0.00 30 1019.8
20260505204519 50 348 7.0 16.0 0.00 0.00 0.00 29 1019.8
20260505203022 51 335 6.0 15.0 0.00 0.00 0.00 28 1019.9
20260505201525 50 16 4.0 15.0 0.00 0.00 0.00 28 1019.9
20260505200012 49 18 6.0 14.0 0.00 0.00 0.00 32 1020.0
20260505194521 50 46 4.0 12.0 0.00 0.00 0.00 31 1019.9
20260505193032 49 359 8.0 14.0 0.00 0.00 0.00 32 1019.9
20260505191526 50 356 5.0 16.0 0.00 0.00 0.00 31 1020.0
20260505190027 48 68 6.0 15.0 0.00 0.00 0.00 33 1020.1
20260505184514 49 342 5.0 15.0 0.00 0.00 0.00 33 1020.0
20260505183031 47 44 5.0 14.0 0.00 0.00 0.00 37 1020.1
20260505181527 48 354 6.0 12.0 0.00 0.00 0.00 34 1020.2
20260505180028 48 344 5.0 13.0 0.00 0.00 0.00 36 1020.3
20260505174526 46 338 8.0 14.0 0.00 0.00 0.00 35 1020.3
20260505173019 45 326 4.0 13.0 0.00 0.00 0.00 42 1020.4
20260505171522 47 47 4.0 11.0 0.00 0.00 0.00 43 1020.4
20260505170026 46 60 5.0 11.0 0.00 0.00 0.00 43 1020.4
20260505164512 45 25 5.0 9.0 0.00 0.00 0.00 49 1020.5
20260505163018 43 328 4.0 11.0 0.00 0.00 0.00 51 1020.5
20260505161522 43 360 3.0 10.0 0.00 0.00 0.00 53 1020.5
20260505153016 42 1 1.0 9.0 0.00 0.00 0.00 58 1020.6
20260505151520 41 1 3.0 12.0 0.00 0.00 0.00 59 1020.6
20260505124535 37 59 2.0 4.0 0.00 0.00 0.00 66 1020.0
20260505123028 37 44 2.0 4.0 0.00 0.00 0.00 66 1020.0
20260505121512 37 56 3.0 6.0 0.00 0.00 0.00 64 1019.9
20260505120023 37 67 4.0 7.0 0.00 0.00 0.00 62 1019.8
20260505114523 38 60 2.0 5.0 0.00 0.00 0.00 61 1019.8
20260505113024 38 41 3.0 6.0 0.00 0.00 0.00 60 1019.7
20260505111512 38 61 3.0 7.0 0.00 0.00 0.00 59 1019.7
20260505101527 41 12 1.0 4.0 0.00 0.00 0.00 54 1019.4
20260505100014 41 321 2.0 5.0 0.00 0.00 0.00 56 1019.3
20260505094520 40 311 1.0 5.0 0.00 0.00 0.00 54 1019.1
20260505093004 40 347 2.0 4.0 0.00 0.00 0.00 53 1019.0
20260505091507 40 298 1.0 3.0 0.00 0.00 0.00 51 1018.9
20260505090011 40 337 2.0 5.0 0.00 0.00 0.00 51 1018.8
20260505084537 40 328 1.0 4.0 0.00 0.00 0.00 51 1018.8
20260505083005 40 298 1.0 3.0 0.00 0.00 0.00 52 1018.8
20260505081511 40 334 1.0 3.0 0.00 0.00 0.00 51 1018.9